Dewpoint
73 73 75 75 75 74 75 75 75 76 75 75 75 75 75 75 75 75 75 75 75 75 76 76 75 75 76 75 75 75 75 75 75 75 75 75 75 75 75 75 76 76 76 76 76 76 76 76 76 75 76 76 76 75 75 76 76 76 77 77 76 76 76 76 76 76 76 75 75 75 76 76 75 75 75 75 75 75 75 76 76 75 75 75 75
73 74 74 74 75 75 75 75 75 75 75 75 75 75 75 75 75 75 75 75 75 76 76 75 75 76 76 75 76 76 76 76 76 75 75 75 75 75 75 75 76 76 76 76 76 77 77 76 76 76 76 76 76 75 76 76 76 76 76 76 76 75 75 75 76 76 76 75 75 75 75 76 75 75 74 74 75 76 76 76 75 74 75 75 74
74 74 74 75 75 75 75 76 75 75 75 75 75 75 75 75 75 75 74 75 75 76 75 75 75 75 75 76 76 76 76 76 75 75 75 75 74 74 75 75 76 76 76 76 76 76 76 76 76 76 76 76 76 76 75 76 76 75 75 76 75 76 75 75 75 75 75 75 75 75 75 75 74 74 74 74 75 75 75 76 76 75 74 75 75
73 74 74 74 75 75 75 75 75 75 75 75 75 75 75 74 74 74 74 75 75 75 75 75 75 75 75 75 76 76 75 75 75 75 75 75 75 75 75 75 76 76 76 77 76 76 76 76 76 76 76 76 76 76 76 75 75 75 75 76 76 75 75 76 76 75 75 74 75 75 75 74 73 74 74 74 74 75 75 76 75 75 75 74 75
73 73 74 74 74 75 75 74 75 75 75 75 75 75 75 74 74 74 74 74 74 75 75 75 75 75 75 75 76 76 76 76 76 75 75 75 75 75 75 75 76 76 75 76 76 76 76 76 76 76 76 76 76 76 76 76 76 76 76 76 76 76 75 75 75 75 75 75 75 76 74 74 74 74 74 74 74 75 75 75 75 75 75 74 74
73 73 74 74 74 75 75 75 75 75 75 75 75 75 75 75 74 75 75 75 75 74 75 75 75 75 75 75 76 76 76 76 75 75 75 75 75 74 74 74 75 76 76 76 76 76 76 76 76 76 76 76 75 76 76 75 75 76 76 75 76 76 75 75 74 75 76 76 76 74 74 74 74 74 75 74 74 74 74 74 74 74 74 74 75
72 73 73 74 74 75 75 75 74 75 75 75 75 75 75 75 74 75 75 75 75 75 75 75 75 75 75 75 76 75 76 75 75 75 75 75 74 74 74 74 75 75 76 76 76 76 75 76 76 76 76 76 76 77 76 76 75 76 76 76 76 75 75 75 74 75 76 75 72 73 73 74 74 73 74 74 74 74 74 74 74 74 74 74 74
73 73 74 74 74 74 75 74 74 74 75 75 75 75 74 74 74 75 75 75 75 74 75 75 75 75 75 75 75 75 76 75 75 75 75 75 74 74 74 74 74 75 76 75 75 76 76 76 76 76 76 76 76 76 76 75 75 75 76 76 76 76 75 74 74 74 75 72 72 72 72 73 73 73 74 74 74 74 74 73 74 74 74 74 74
72 73 73 73 73 74 74 74 74 74 74 75 75 74 74 75 75 75 75 75 75 75 75 75 74 75 75 75 75 75 75 75 75 75 75 75 75 74 74 74 74 75 74 75 75 75 76 76 76 76 76 76 76 76 76 76 75 75 75 75 75 75 75 75 75 74 74 72 72 72 72 72 73 73 73 73 73 73 73 73 74 74 73 73 74
72 73 73 73 73 74 74 74 74 74 75 75 75 75 75 75 75 75 75 75 75 75 75 75 74 74 75 75 75 75 75 75 75 75 75 75 74 74 74 74 74 74 74 74 75 75 75 75 75 75 76 76 76 76 76 76 76 75 75 75 75 75 75 75 74 75 72 71 72 72 73 75 73 73 73 73 73 73 74 74 75 73 73 73 73
72 72 72 72 73 74 74 75 75 75 75 75 75 75 75 75 75 75 75 75 75 75 75 75 74 74 75 75 75 75 75 75 75 75 75 75 74 74 74 74 74 74 74 75 75 75 75 75 75 75 75 76 75 75 75 75 75 74 74 74 74 74 74 75 76 72 71 71 71 72 73 74 72 73 73 73 73 73 74 74 74 74 74 73 74
72 72 72 73 75 74 75 75 75 75 75 75 75 75 75 74 75 75 75 75 75 75 75 75 75 74 75 74 75 75 75 75 75 75 75 75 75 75 74 74 75 75 75 75 75 75 75 75 75 75 75 74 74 74 74 74 73 73 73 73 74 74 75 74 74 71 70 71 72 72 73 73 72 73 74 74 74 74 74 74 74 74 74 73 74
72 72 72 73 74 75 75 75 75 75 75 75 75 75 75 74 74 74 75 74 74 74 74 75 75 75 75 75 75 75 75 74 75 75 75 75 74 75 75 75 75 75 75 75 75 75 75 74 74 74 74 74 74 74 74 73 74 73 74 74 74 74 74 75 70 70 71 71 72 72 71 72 72 75 74 74 74 74 73 73 73 73 73 73 73
72 72 73 74 74 76 75 75 75 75 75 75 75 75 75 74 74 75 75 74 74 74 74 75 75 75 75 75 75 75 75 75 75 75 75 75 75 74 75 75 75 75 75 74 75 75 75 75 74 74 74 74 74 74 74 74 74 73 73 74 74 75 75 74 72 71 71 71 72 71 72 73 72 75 73 72 72 73 72 72 72 72 72 72 72
72 73 74 74 74 74 76 75 75 75 75 75 75 75 74 74 74 75 75 74 74 74 74 74 75 75 75 75 75 75 75 75 75 74 74 74 75 75 75 75 75 74 74 75 75 75 75 76 75 75 75 74 74 74 74 74 73 74 74 75 75 76 75 74 70 71 71 72 73 73 72 72 74 73 73 72 72 72 72 72 71 71 71 71 71
73 73 74 74 74 74 74 75 75 75 75 75 75 74 74 74 74 75 75 74 74 74 74 74 75 74 74 74 75 75 75 75 75 74 74 74 75 75 75 75 75 75 75 75 75 76 76 76 75 75 75 75 74 74 74 74 75 75 75 75 75 76 76 77 71 70 71 72 72 72 71 72 73 73 73 72 72 71 71 71 70 69 69 69 70
73 74 73 74 74 74 74 75 74 75 74 74 74 74 74 74 74 74 75 75 75 74 74 74 74 74 74 74 74 74 75 75 75 74 74 74 74 74 75 75 75 75 75 75 75 76 76 76 76 76 75 75 75 74 74 74 75 75 75 75 75 75 75 75 69 70 70 72 72 72 72 72 73 73 73 72 71 71 70 70 70 70 70 69 70
74 73 73 73 73 74 74 74 73 74 73 74 74 75 74 73 74 74 74 74 75 75 75 75 75 74 74 74 74 74 74 75 75 74 74 74 74 74 75 75 75 75 75 75 75 76 76 76 76 76 75 75 75 75 74 75 75 75 75 76 76 76 75 76 68 69 70 73 71 73 73 75 73 73 72 71 70 70 70 71 71 70 70 70 71
73 73 73 73 73 73 73 74 75 74 73 74 74 74 74 74 74 74 75 75 74 74 74 74 74 74 74 74 74 74 75 75 75 74 74 74 74 74 74 75 75 76 76 76 75 76 75 75 75 75 75 75 75 76 75 75 75 76 76 75 76 76 76 76 70 69 72 71 72 72 72 74 73 73 72 71 71 71 71 71 70 70 71 71 70
72 73 73 73 73 72 72 73 73 73 72 73 73 73 73 73 74 74 74 74 74 74 74 74 74 74 74 74 74 74 74 74 75 74 75 75 75 75 75 75 76 76 76 76 75 75 76 75 75 75 75 75 76 76 76 76 76 76 77 77 77 77 74 73 68 69 69 70 72 71 74 74 73 72 71 72 71 71 71 71 71 71 71 71 72
72 72 72 72 72 71 71 72 73 72 72 72 73 73 74 74 74 74 74 74 74 75 74 74 74 74 74 74 74 75 74 74 74 74 75 76 75 75 76 76 76 76 76 76 75 75 76 76 76 76 76 76 76 76 76 76 77 77 77 77 77 76 74 72 67 70 70 73 73 72 74 74 73 72 72 71 71 72 71 72 71 72 72 72 72
71 71 72 72 72 71 71 72 73 72 72 73 73 74 74 74 74 74 74 74 74 74 74 74 75 74 75 75 74 75 74 74 74 75 75 74 75 75 76 76 76 75 75 76 75 75 75 75 76 76 76 76 76 76 76 77 77 77 76 76 76 76 75 72 67 70 72 72 73 73 74 73 73 72 72 71 72 72 71 72 72 72 72 72 71
70 71 71 72 72 72 72 72 72 72 72 72 73 73 72 72 73 74 74 75 75 75 74 75 74 75 74 75 75 74 74 74 75 76 76 75 76 75 75 75 75 75 76 76 75 75 75 75 75 76 76 76 76 75 75 74 74 76 76 75 74 75 75 71 67 69 70 72 72 74 73 73 73 73 72 72 72 72 72 72 72 72 73 73 73
70 70 70 72 72 72 72 72 72 72 72 72 72 71 71 72 72 73 73 74 74 74 74 74 74 74 74 73 74 74 74 73 77 75 75 75 74 75 75 76 75 75 76 76 75 75 76 76 76 76 78 78 75 74 74 74 73 73 72 72 74 75 73 68 68 68 70 73 73 74 74 74 73 73 73 72 72 72 73 73 72 72 73 74 74
70 70 71 71 71 71 72 72 72 71 71 72 71 71 71 71 71 72 73 73 73 73 74 73 74 74 73 74 74 74 74 73 73 74 74 73 73 73 73 74 74 73 76 74 74 74 75 74 74 76 74 75 75 74 74 73 73 72 72 71 73 74 65 67 67 68 71 72 73 75 74 74 74 73 73 73 73 73 73 73 73 73 73 73 74
71 70 70 71 71 71 72 71 71 71 72 72 71 72 72 71 71 72 73 73 73 73 73 73 74 74 74 75 74 73 72 73 72 71 72 72 72 72 72 72 72 73 75 74 74 74 73 73 72 73 73 73 73 73 72 74 72 71 71 71 70 67 66 66 67 68 70 72 74 75 75 75 74 74 74 74 73 74 74 73 73 74 74 74 75
71 70 70 71 72 72 72 72 71 71 72 72 72 72 71 71 72 73 73 73 73 73 73 74 74 74 74 74 73 73 72 71 71 70 70 71 71 71 71 72 72 72 73 73 73 73 73 73 72 72 72 72 72 72 72 71 71 70 70 68 67 66 66 66 66 68 70 72 75 75 75 75 75 75 75 75 74 74 74 74 74 75 75 76 76
70 70 71 71 72 72 72 72 72 72 72 72 72 72 72 72 73 74 74 74 73 73 73 74 74 73 73 73 74 72 70 70 70 70 70 70 71 71 72 72 73 73 74 74 73 72 72 73 73 71 71 71 71 71 71 70 70 69 67 66 66 66 67 66 66 67 69 72 73 76 76 76 76 76 76 76 75 75 75 75 75 76 76 76 77
69 70 70 71 71 72 71 72 72 72 72 73 72 73 72 73 74 74 73 75 72 73 73 73 73 73 73 73 73 71 70 70 70 71 71 71 72 73 73 72 73 73 73 71 72 72 71 71 71 71 71 70 70 70 70 69 67 66 65 65 66 67 68 67 67 67 68 70 73 76 77 77 77 77 77 77 77 76 76 76 76 76 76 77 77
69 70 70 71 71 71 71 72 72 72 72 72 73 72 72 72 73 73 73 75 72 72 72 72 72 73 73 73 73 71 68 69 70 71 71 71 72 72 72 72 72 72 71 70 71 72 71 71 71 71 71 70 69 69 67 63 62 63 64 64 65 66 68 68 67 67 68 70 71 74 77 77 77 77 77 77 77 77 77 77 77 77 77 77 77
70 69 69 70 71 71 71 72 72 73 72 72 72 72 73 72 74 73 73 73 72 73 73 72 72 72 73 73 73 73 68 69 70 72 72 72 72 72 71 72 72 71 71 71 72 72 72 72 69 70 70 68 70 68 64 62 62 63 65 63 65 66 66 67 67 68 67 68 70 72 75 77 77 77 77 77 77 77 77 77 77 78 78 78 78
69 69 70 71 71 70 70 71 72 73 72 71 72 71 72 72 73 73 72 73 73 72 72 72 72 71 72 73 73 71 72 71 71 73 72 73 72 73 72 72 71 69 71 72 72 73 74 74 74 74 72 72 71 70 69 62 62 62 64 62 64 65 65 66 66 67 68 68 69 70 72 75 77 77 77 77 77 77 77 77 78 78 78 78 79
69 69 70 71 70 69 69 70 71 73 71 70 71 71 71 72 72 71 72 72 73 71 70 70 71 73 75 73 73 74 76 75 74 74 76 73 73 72 72 74 73 71 72 74 74 75 73 74 71 73 72 70 68 67 66 62 61 61 61 62 64 64 64 65 65 67 67 68 69 70 70 74 75 77 78 78 78 78 78 78 78 78 78 79 79
69 69 70 70 69 69 70 70 71 71 71 70 71 70 71 71 72 71 73 72 72 70 69 71 74 75 75 74 74 76 76 75 74 74 74 74 73 73 73 73 72 73 75 76 72 74 73 73 73 69 72 71 68 68 65 60 61 62 61 61 63 63 63 62 62 63 66 68 69 69 69 70 73 75 76 78 79 79 79 79 79 79 79 79 80
69 69 69 69 70 69 70 70 71 70 72 71 71 70 70 70 71 71 71 71 70 68 70 73 74 75 75 75 75 76 75 74 75 74 74 73 74 73 73 72 72 75 75 75 72 72 71 71 73 69 69 69 70 71 67 60 60 59 60 61 62 62 63 61 61 60 63 66 68 68 69 69 70 72 74 74 78 78 78 79 79 80 80 80 80
68 69 69 69 69 69 71 70 70 70 71 71 71 71 70 70 70 72 70 70 69 69 71 72 74 75 75 75 76 76 76 76 77 76 75 75 73 73 73 75 76 75 75 74 73 71 71 71 72 73 69 68 71 68 65 64 63 59 60 63 64 66 62 60 59 59 59 63 65 66 69 69 70 71 73 72 72 73 77 79 79 80 80 81 81
68 68 68 68 69 69 71 69 70 70 70 70 70 70 70 69 69 70 68 68 68 69 71 72 73 74 75 76 76 77 76 76 77 77 74 75 74 73 73 74 77 74 73 74 73 74 71 70 70 73 72 70 70 67 67 66 64 61 61 62 61 65 60 59 58 58 59 60 61 62 66 68 70 75 73 73 72 72 74 77 79 81 81 81 79
68 68 68 68 68 69 69 69 69 70 70 70 70 69 69 68 68 68 70 66 67 68 70 72 73 74 75 75 76 77 77 76 77 77 75 75 76 75 73 75 75 74 73 73 73 73 72 72 71 71 75 72 69 68 67 67 64 58 60 58 63 62 61 61 60 67 60 59 61 62 63 64 65 67 69 70 70 70 71 73 77 78 79 79 79
67 68 68 68 68 68 69 69 69 69 69 70 69 68 68 68 68 68 67 68 69 69 70 72 73 73 74 75 76 77 78 76 76 78 76 76 75 75 74 75 76 75 72 72 72 74 75 73 72 73 72 73 71 71 68 67 67 66 57 58 61 64 63 63 69 64 63 60 58 61 59 60 60 62 64 66 65 64 65 68 71 73 74 77 79
67 67 68 67 67 67 68 69 69 68 68 69 68 67 68 69 68 69 69 70 70 71 71 71 73 73 74 76 76 77 77 77 77 77 77 77 75 75 75 75 75 74 72 70 70 72 72 72 73 75 72 70 72 68 67 69 68 67 73 65 64 64 62 71 63 61 68 62 64 68 61 66 66 65 63 65 68 65 67 71 75 72 72 73 76
67 67 66 65 66 66 67 67 67 67 68 67 66 67 67 67 67 67 67 69 69 70 70 71 73 73 74 76 76 76 77 78 78 78 76 79 76 75 75 75 76 75 74 71 72 74 75 74 74 75 73 66 67 68 68 67 64 63 68 65 69 68 73 70 64 63 62 63 63 66 66 65 68 66 67 67 68 69 70 71 72 73 73 72 73
65 65 64 65 65 65 66 66 67 68 68 66 66 67 68 67 67 67 67 69 70 69 69 71 72 73 75 76 76 76 76 77 77 77 78 76 75 75 75 75 76 75 78 77 76 78 74 72 72 70 71 68 66 68 68 64 64 63 61 63 68 67 71 68 64 61 62 64 65 67 67 65 66 68 69 67 68 68 68 70 71 72 72 73 74
64 63 64 64 65 65 66 67 67 68 68 66 67 68 69 70 69 69 68 69 70 70 69 72 73 73 74 76 76 76 76 76 77 78 76 77 76 76 75 76 76 78 75 73 74 74 73 72 72 70 67 69 71 70 70 65 63 69 69 65 62 61 67 66 70 70 68 64 67 65 67 63 66 69 70 68 69 70 70 71 71 72 71 72 72
63 63 64 64 64 67 67 67 67 68 69 70 70 69 69 69 70 69 69 69 69 72 72 73 72 73 74 76 76 76 76 76 76 77 77 77 75 74 76 76 76 77 75 72 72 73 71 71 72 73 68 64 66 68 73 70 70 65 60 62 62 64 60 61 65 64 70 66 66 64 65 63 67 69 69 68 67 70 70 70 70 71 71 72 72
62 63 63 63 65 66 67 66 67 68 69 73 70 71 71 69 70 71 72 71 71 70 70 71 72 74 74 75 75 76 76 76 75 77 77 76 76 76 75 75 77 77 75 74 72 73 72 72 73 72 68 64 66 70 71 72 70 69 67 64 61 60 60 62 65 65 69 66 68 64 69 64 67 71 69 68 68 68 70 69 70 70 70 71 72
62 63 63 63 66 66 67 67 67 68 69 72 70 72 70 69 69 69 68 68 68 68 68 69 71 73 73 74 75 76 75 75 75 76 77 77 75 75 76 76 75 76 78 73 74 73 71 71 72 72 72 72 68 70 70 72 74 73 71 66 64 60 61 62 62 60 66 72 71 67 66 64 65 66 68 68 67 68 71 70 71 69 69 70 71
63 63 63 64 66 67 67 67 67 68 69 71 71 72 69 68 68 68 68 67 67 68 69 70 71 72 73 73 74 75 75 74 74 75 76 77 76 76 75 75 75 74 77 74 72 73 72 73 77 73 73 76 71 68 70 72 70 70 72 70 72 72 69 64 62 65 60 63 65 70 65 66 66 66 67 69 69 68 69 71 70 69 69 70 72
63 64 63 64 67 67 67 67 68 69 69 71 71 71 69 69 68 68 69 68 68 68 69 70 71 73 72 72 73 73 74 74 74 75 76 77 76 76 75 76 75 75 76 74 73 73 74 74 77 75 77 75 71 69 70 73 68 68 74 71 72 73 70 69 69 62 61 61 63 65 70 69 67 67 70 71 70 69 69 69 68 69 70 71 73
63 64 64 65 67 68 68 68 68 69 68 73 72 71 71 70 69 69 70 70 68 69 70 73 71 74 71 72 72 73 73 75 75 75 76 76 77 76 76 76 75 75 78 76 74 74 74 73 74 73 75 74 75 74 71 70 71 70 69 69 71 69 69 69 70 68 64 63 64 66 66 67 69 68 69 71 71 69 69 69 70 71 73 71 71
63 65 64 65 66 68 68 69 68 68 68 73 73 72 72 73 71 70 70 69 71 70 70 71 71 72 70 71 72 73 73 75 75 75 76 76 76 77 76 76 76 76 78 73 72 73 73 74 75 75 75 74 75 75 73 73 73 73 71 69 67 70 67 69 70 67 66 65 62 62 64 64 63 65 70 69 69 70 70 69 69 69 69 70 71
64 64 64 65 66 67 67 69 68 68 69 72 72 72 72 72 71 70 69 68 70 70 70 70 71 71 71 71 72 72 73 74 74 75 76 75 75 77 76 76 76 77 78 73 72 71 73 74 74 74 75 74 73 74 74 74 74 72 72 69 68 69 67 65 67 67 65 65 65 64 66 66 66 65 68 69 71 70 69 69 70 69 70 70 71